�������l�o���
Date,Time,MP-1(��Sv/h),MP-2(��Sv/h),MP-3(��Sv/h),MP-4(��Sv/h),MP-5(��Sv/h),MP-6(��Sv/h),MP-7(��Sv/h),MP-8(��Sv/h),����,����(m/s),���J
2024/04/17,00:00,0.505,0.777,0.487,0.953,0.684,0.315,0.554,0.518,��,4.8,��
2024/04/17,00:10,0.506,0.774,0.490,0.951,0.686,0.316,0.555,0.518,��,6.5,��
2024/04/17,00:20,0.507,0.775,0.488,0.951,0.685,0.318,0.553,0.518,��,5.9,��
2024/04/17,00:30,0.505,0.775,0.486,0.948,0.684,0.315,0.550,0.516,��,5.8,��
2024/04/17,00:40,0.507,0.774,0.488,0.950,0.686,0.315,0.554,0.517,��,6.2,��
2024/04/17,00:50,0.507,0.775,0.489,0.947,0.685,0.316,0.553,0.517,��,6.7,��
2024/04/17,01:00,0.508,0.776,0.487,0.952,0.686,0.317,0.554,0.518,��,6.5,��
2024/04/17,01:10,0.506,0.773,0.487,0.950,0.684,0.315,0.553,0.518,��,6.6,��
2024/04/17,01:20,0.506,0.773,0.487,0.951,0.686,0.316,0.553,0.518,��,6.6,��
2024/04/17,01:30,0.507,0.774,0.488,0.953,0.684,0.317,0.552,0.517,��,7.7,��
2024/04/17,01:40,0.506,0.775,0.486,0.950,0.683,0.316,0.552,0.517,��,7.6,��
2024/04/17,01:50,0.506,0.772,0.488,0.950,0.682,0.315,0.553,0.516,��쐼,7.3,��
2024/04/17,02:00,0.508,0.776,0.487,0.950,0.685,0.316,0.551,0.518,��쐼,6.9,��
2024/04/17,02:10,0.506,0.774,0.488,0.950,0.684,0.316,0.551,0.517,��,7.0,��
2024/04/17,02:20,0.507,0.774,0.486,0.950,0.684,0.316,0.554,0.518,��,7.2,��
2024/04/17,02:30,0.507,0.774,0.487,0.950,0.684,0.316,0.553,0.518,��쐼,6.5,��
2024/04/17,02:40,0.507,0.775,0.486,0.950,0.684,0.317,0.553,0.517,��,6.2,��
2024/04/17,02:50,0.506,0.775,0.487,0.949,0.685,0.316,0.554,0.517,��쐼,5.4,��
2024/04/17,03:00,0.506,0.773,0.485,0.951,0.684,0.318,0.553,0.518,��,5.0,��
2024/04/17,03:10,0.509,0.773,0.488,0.950,0.686,0.316,0.554,0.517,��,5.8,��
2024/04/17,03:20,0.506,0.774,0.487,0.951,0.684,0.316,0.552,0.517,��,5.0,��
2024/04/17,03:30,0.508,0.776,0.486,0.951,0.684,0.317,0.553,0.518,��,4.9,��
2024/04/17,03:40,0.506,0.772,0.486,0.951,0.685,0.316,0.551,0.517,��쓌,3.8,��
2024/04/17,03:50,0.507,0.774,0.487,0.951,0.685,0.316,0.552,0.516,��,3.5,��
2024/04/17,04:00,0.507,0.774,0.487,0.952,0.686,0.316,0.553,0.518,��,4.7,��
2024/04/17,04:10,0.507,0.775,0.487,0.951,0.684,0.317,0.553,0.518,��,6.3,��
2024/04/17,04:20,0.506,0.775,0.487,0.950,0.684,0.317,0.553,0.517,��,7.1,��
2024/04/17,04:30,0.506,0.775,0.488,0.949,0.684,0.317,0.553,0.517,��,6.9,��
2024/04/17,04:40,0.508,0.776,0.487,0.950,0.684,0.315,0.552,0.517,��,5.1,��
2024/04/17,04:50,0.506,0.775,0.485,0.951,0.684,0.316,0.553,0.517,��,4.1,��
2024/04/17,05:00,0.507,0.775,0.487,0.950,0.685,0.316,0.552,0.518,��,4.7,��
2024/04/17,05:10,0.508,0.776,0.488,0.951,0.685,0.317,0.553,0.517,��쐼,3.2,��
2024/04/17,05:20,0.507,0.778,0.486,0.949,0.685,0.317,0.554,0.518,��쐼,2.8,��
2024/04/17,05:30,0.508,0.777,0.487,0.952,0.687,0.318,0.552,0.518,�쐼,2.2,��
2024/04/17,05:40,0.508,0.776,0.488,0.952,0.686,0.317,0.552,0.518,���쐼,1.7,��
2024/04/17,05:50,0.508,0.776,0.488,0.952,0.686,0.317,0.553,0.516,�k��,1.7,��
2024/04/17,06:00,0.507,0.776,0.489,0.951,0.686,0.316,0.552,0.518,�k��,2.0,��
2024/04/17,06:10,0.506,0.776,0.488,0.952,0.684,0.316,0.551,0.519,�k�k��,2.3,�L
2024/04/17,06:20,0.510,0.777,0.489,0.951,0.685,0.317,0.552,0.520,�k�k��,3.0,�L
2024/04/17,06:30,0.508,0.774,0.488,0.950,0.685,0.318,0.552,0.518,�k,2.8,�L
2024/04/17,06:40,0.508,0.774,0.488,0.951,0.685,0.317,0.552,0.519,�k�k��,3.1,��
2024/04/17,06:50,0.507,0.776,0.488,0.951,0.683,0.316,0.552,0.517,�k�k��,2.6,�L
2024/04/17,07:00,0.508,0.775,0.488,0.949,0.684,0.317,0.551,0.517,�k�k��,2.6,�L
2024/04/17,07:10,0.507,0.777,0.488,0.953,0.684,0.317,0.552,0.519,�k�k��,3.8,�L
2024/04/17,07:20,0.507,0.774,0.488,0.952,0.684,0.317,0.551,0.518,�k�k��,4.3,�L
2024/04/17,07:30,0.508,0.777,0.486,0.952,0.686,0.315,0.552,0.517,�k�k��,4.8,�L
2024/04/17,07:40,0.508,0.775,0.486,0.951,0.684,0.316,0.551,0.519,�k�k��,5.2,�L
2024/04/17,07:50,0.506,0.772,0.487,0.953,0.684,0.316,0.551,0.518,�k�k��,5.3,�L
2024/04/17,08:00,0.507,0.772,0.487,0.953,0.685,0.317,0.552,0.517,�k�k��,5.9,�L
2024/04/17,08:10,0.506,0.774,0.488,0.951,0.684,0.316,0.552,0.517,�k�k��,6.4,�L
2024/04/17,08:20,0.508,0.773,0.487,0.951,0.685,0.317,0.551,0.516,�k�k��,4.8,�L
2024/04/17,08:30,0.507,0.774,0.487,0.950,0.683,0.317,0.551,0.519,�k�k��,4.5,��
2024/04/17,08:40,0.508,0.774,0.488,0.951,0.685,0.317,0.551,0.518,�k�k��,3.7,��
2024/04/17,08:50,0.507,0.772,0.488,0.952,0.685,0.316,0.552,0.519,�k,1.7,��
2024/04/17,09:00,0.507,0.773,0.488,0.950,0.684,0.316,0.550,0.519,�k�k��,1.2,��
2024/04/17,09:10,0.507,0.772,0.489,0.952,0.685,0.315,0.551,0.517,�k,2.3,�L
2024/04/17,09:20,0.507,0.772,0.486,0.951,0.683,0.316,0.550,0.517,��,1.1,�L
2024/04/17,09:30,0.504,0.771,0.488,0.952,0.683,0.315,0.551,0.515,�k��,1.7,�L
2024/04/17,09:40,0.505,0.769,0.486,0.951,0.681,0.315,0.550,0.515,�k,3.0,�L
2024/04/17,09:50,0.505,0.766,0.486,0.949,0.678,0.314,0.550,0.515,�k,2.8,�L
2024/04/17,10:00,0.503,0.769,0.485,0.950,0.681,0.316,0.550,0.516,�k�k��,1.2,�L
2024/04/17,10:10,0.504,0.769,0.485,0.949,0.681,0.314,0.549,0.515,-,CALM,�L
2024/04/17,10:20,0.502,0.768,0.486,0.950,0.681,0.316,0.550,0.515,�쓌,0.8,�L
2024/04/17,10:30,0.503,0.768,0.485,0.946,0.681,0.316,0.550,0.516,��,0.9,�L
2024/04/17,10:40,0.504,0.769,0.486,0.949,0.681,0.317,0.550,0.516,��쐼,0.8,�L
2024/04/17,10:50,0.503,0.770,0.487,0.948,0.679,0.317,0.551,0.516,���쓌,1.2,��
2024/04/17,11:00,0.503,0.772,0.486,0.948,0.680,0.317,0.551,0.516,��쓌,0.6,�L
2024/04/17,11:10,0.502,0.770,0.485,0.948,0.681,0.317,0.550,0.516,�쓌,0.9,�L
2024/04/17,11:20,0.503,0.769,0.485,0.948,0.680,0.313,0.550,0.517,��쓌,0.9,�L
2024/04/17,11:30,0.503,0.768,0.484,0.947,0.681,0.313,0.550,0.517,�쓌,1.4,��
2024/04/17,11:40,0.501,0.767,0.483,0.948,0.679,0.314,0.550,0.514,�쓌,1.9,��
2024/04/17,11:50,0.503,0.768,0.484,0.946,0.680,0.314,0.550,0.516,��쓌,1.2,��
2024/04/17,12:00,0.503,0.769,0.482,0.947,0.681,0.314,0.551,0.515,�쓌,1.2,�L
2024/04/17,12:10,0.502,0.767,0.484,0.946,0.680,0.315,0.551,0.516,�쓌,1.2,�L
2024/04/17,12:20,0.502,0.769,0.484,0.949,0.682,0.315,0.551,0.515,���쓌,0.9,�L
2024/04/17,12:30,0.503,0.769,0.484,0.948,0.681,0.314,0.551,0.516,���쓌,1.7,��
2024/04/17,12:40,0.502,0.769,0.483,0.949,0.681,0.315,0.549,0.516,�쓌,2.2,��
2024/04/17,12:50,0.503,0.771,0.484,0.948,0.682,0.314,0.551,0.515,�쓌,1.7,��
2024/04/17,13:00,0.505,0.772,0.485,0.948,0.682,0.314,0.551,0.514,��쓌,3.9,��
2024/04/17,13:10,0.505,0.772,0.483,0.948,0.682,0.315,0.552,0.514,��쓌,4.1,��
2024/04/17,13:20,0.504,0.771,0.485,0.948,0.679,0.315,0.550,0.514,��쓌,3.7,��
2024/04/17,13:30,0.505,0.770,0.484,0.950,0.684,0.315,0.553,0.516,�쓌,2.5,��
2024/04/17,13:40,0.505,0.771,0.486,0.948,0.682,0.315,0.551,0.517,�쓌,2.6,��
2024/04/17,13:50,0.505,0.772,0.485,0.946,0.681,0.313,0.552,0.515,�쓌,2.6,��
2024/04/17,14:00,0.505,0.771,0.483,0.947,0.682,0.315,0.551,0.517,�쓌,3.1,��
2024/04/17,14:10,0.503,0.771,0.485,0.948,0.682,0.316,0.551,0.515,�쓌,3.4,��
2024/04/17,14:20,0.506,0.773,0.484,0.948,0.682,0.314,0.551,0.515,�쓌,4.0,��
2024/04/17,14:30,0.505,0.770,0.483,0.949,0.682,0.315,0.554,0.516,��쓌,4.4,��
2024/04/17,14:40,0.503,0.771,0.483,0.949,0.680,0.314,0.553,0.515,��쓌,4.4,��
2024/04/17,14:50,0.505,0.771,0.484,0.949,0.682,0.315,0.551,0.516,��쓌,3.9,��
2024/04/17,15:00,0.505,0.770,0.485,0.951,0.684,0.314,0.551,0.515,�쓌,4.0,��
2024/04/17,15:10,0.505,0.770,0.485,0.949,0.684,0.315,0.551,0.515,�쓌,2.5,��
2024/04/17,15:20,0.504,0.774,0.486,0.950,0.683,0.315,0.551,0.515,��쓌,3.6,��
2024/04/17,15:30,0.506,0.773,0.484,0.951,0.681,0.314,0.551,0.516,�쓌,2.6,��
2024/04/17,15:40,0.505,0.771,0.483,0.947,0.682,0.314,0.551,0.516,���쓌,2.8,��
2024/04/17,15:50,0.505,0.771,0.484,0.947,0.684,0.314,0.551,0.515,���쓌,1.4,��
2024/04/17,16:00,0.505,0.771,0.485,0.948,0.683,0.315,0.551,0.515,�쓌,1.1,��
2024/04/17,16:10,0.503,0.771,0.484,0.949,0.683,0.314,0.551,0.515,��쓌,1.5,��
2024/04/17,16:20,0.504,0.770,0.485,0.951,0.682,0.313,0.551,0.514,�쓌,2.0,��
2024/04/17,16:30,0.505,0.771,0.484,0.950,0.683,0.315,0.551,0.514,���쓌,0.9,��
2024/04/17,16:40,0.502,0.772,0.486,0.950,0.682,0.315,0.552,0.515,��쓌,2.2,��
2024/04/17,16:50,0.504,0.772,0.484,0.950,0.682,0.316,0.550,0.515,��,1.4,��
2024/04/17,17:00,0.504,0.776,0.486,0.949,0.681,0.314,0.550,0.516,�쓌,1.5,��
2024/04/17,17:10,0.505,0.774,0.487,0.950,0.683,0.315,0.550,0.515,�쓌,0.9,��
2024/04/17,17:20,0.505,0.774,0.488,0.952,0.684,0.315,0.552,0.517,��쓌,1.5,��
2024/04/17,17:30,0.505,0.775,0.488,0.953,0.682,0.316,0.551,0.517,��쓌,0.6,��
2024/04/17,17:40,0.505,0.775,0.487,0.950,0.684,0.317,0.552,0.516,��,0.8,��
2024/04/17,17:50,0.507,0.776,0.487,0.950,0.684,0.316,0.550,0.517,-,CALM,��
2024/04/17,18:00,0.507,0.775,0.487,0.950,0.684,0.315,0.549,0.515,���쓌,1.2,��
2024/04/17,18:10,0.506,0.774,0.488,0.948,0.683,0.314,0.551,0.517,��,1.1,��
2024/04/17,18:20,0.507,0.775,0.488,0.950,0.687,0.317,0.552,0.516,��쓌,0.6,��
2024/04/17,18:30,0.506,0.774,0.487,0.950,0.686,0.317,0.553,0.518,��,1.2,��
2024/04/17,18:40,0.506,0.774,0.485,0.952,0.686,0.318,0.554,0.518,��쓌,1.2,��
2024/04/17,18:50,0.506,0.777,0.486,0.950,0.686,0.316,0.552,0.517,-,CALM,��
2024/04/17,19:00,0.506,0.774,0.486,0.950,0.685,0.319,0.553,0.518,���k��,1.7,��
2024/04/17,19:10,0.506,0.774,0.486,0.950,0.684,0.315,0.554,0.516,���쓌,0.8,��
2024/04/17,19:20,0.507,0.774,0.486,0.949,0.685,0.318,0.552,0.518,��,0.9,��
2024/04/17,19:30,0.506,0.775,0.486,0.949,0.683,0.317,0.553,0.517,��,0.8,��
2024/04/17,19:40,0.504,0.774,0.486,0.951,0.685,0.317,0.552,0.518,-,CALM,��
2024/04/17,19:50,0.507,0.775,0.485,0.950,0.684,0.317,0.553,0.517,-,CALM,��
2024/04/17,20:00,0.506,0.773,0.485,0.949,0.684,0.315,0.551,0.516,�쓌,1.1,��
2024/04/17,20:10,0.507,0.773,0.487,0.951,0.686,0.317,0.551,0.517,��,0.9,��
2024/04/17,20:20,0.506,0.775,0.486,0.951,0.684,0.317,0.552,0.517,�쓌,1.1,��
2024/04/17,20:30,0.507,0.775,0.488,0.949,0.684,0.317,0.552,0.518,��쓌,0.8,��
2024/04/17,20:40,0.506,0.776,0.487,0.948,0.686,0.316,0.552,0.517,��쓌,0.6,��
2024/04/17,20:50,0.506,0.777,0.486,0.951,0.685,0.317,0.551,0.517,��쐼,0.9,��
2024/04/17,21:00,0.507,0.773,0.487,0.951,0.686,0.316,0.553,0.516,��,0.6,��
2024/04/17,21:10,0.505,0.773,0.486,0.951,0.685,0.317,0.552,0.516,-,CALM,��
2024/04/17,21:20,0.507,0.774,0.485,0.950,0.685,0.318,0.552,0.517,-,CALM,��
2024/04/17,21:30,0.505,0.772,0.485,0.951,0.685,0.316,0.553,0.516,-,CALM,��
2024/04/17,21:40,0.505,0.773,0.487,0.950,0.684,0.316,0.553,0.516,�k�k��,0.6,��
2024/04/17,21:50,0.506,0.776,0.486,0.950,0.685,0.317,0.551,0.519,���k��,0.8,��
2024/04/17,22:00,0.507,0.774,0.486,0.950,0.685,0.317,0.553,0.517,���k��,1.7,��
2024/04/17,22:10,0.506,0.775,0.487,0.952,0.686,0.316,0.553,0.518,�k��,2.0,��
2024/04/17,22:20,0.507,0.773,0.487,0.951,0.685,0.316,0.553,0.518,�k��,2.0,��
2024/04/17,22:30,0.506,0.776,0.486,0.951,0.685,0.317,0.552,0.517,�k��,3.4,��
2024/04/17,22:40,0.507,0.774,0.486,0.952,0.686,0.318,0.553,0.517,�k�k��,3.3,��
2024/04/17,22:50,0.507,0.776,0.488,0.951,0.683,0.318,0.552,0.518,�k��,3.3,��
2024/04/17,23:00,0.506,0.774,0.487,0.952,0.683,0.317,0.553,0.518,�k�k��,3.6,��
2024/04/17,23:10,0.507,0.776,0.486,0.952,0.685,0.315,0.553,0.517,�k��,3.4,��
2024/04/17,23:20,0.508,0.775,0.488,0.949,0.684,0.317,0.553,0.518,�k��,3.8,��
2024/04/17,23:30,0.507,0.774,0.486,0.951,0.685,0.316,0.552,0.518,�k��,3.6,��
2024/04/17,23:40,0.506,0.775,0.488,0.952,0.686,0.316,0.552,0.518,���k��,3.2,��
2024/04/17,23:50,0.506,0.776,0.486,0.952,0.686,0.318,0.553,0.517,���k��,3.3,��
